This demonstration page uses our WeatherBlox Daily Observations layout. Learn more.

Hourly Observations for March 10, 2019

Temp ( °F °C ) Dew Point ( °F °C ) Humidity (%) Winds ( mph kmh ) Pressure ( in mb ) Visibility ( mi km ) Precip ( " mm )
12:15 am 00:15 Clear 24 -4.6 20 -6.4 87 87 W 7 11 30.13 1020 10 16.0934 0 0
12:35 am 00:35 Clear 24 -4.5 20 -6.6 85 85 WNW 7 11 30.13 1020 10 16.0934 0 0
12:55 am 00:55 Clear 23 -5.1 20 -6.9 87 87 W 9 15 30.15 1021 10 16.0934 0 0
1:15 am 01:15 Clear 23 -4.9 19 -7.1 85 85 W 10 17 30.16 1021 10 16.0934 0 0
1:35 am 01:35 Clear 23 -5 19 -7.1 85 85 W 10 17 30.17 1022 10 16.0934 0 0
1:55 am 01:55 Clear 24 -4.3 19 -7.3 80 80 W 10 17 30.19 1022 10 16.0934 0 0
3:15 am 03:15 Clear 24 -4.7 18 -7.6 80 80 W 9 15 30.2 1023 10 16.0934 0 0
3:35 am 03:35 Clear 23 -4.8 18 -7.9 79 79 WNW 9 15 30.2 1023 10 16.0934 0 0
3:55 am 03:55 Clear 22 -5.5 17 -8.2 82 82 WNW 8 13 30.2 1023 10 16.0934 0 0
4:15 am 04:15 Clear 22 -5.8 17 -8.2 83 83 NW 8 13 30.19 1022 10 16.0934 0 0
4:35 am 04:35 Partly Cloudy 22 -5.8 17 -8.2 83 83 NW 10 17 30.18 1022 10 16.0934 0 0
4:55 am 04:55 Clear 22 -5.5 17 -8.1 82 82 WNW 8 13 30.2 1023 10 16.0934 0 0
5:15 am 05:15 Clear 22 -5.4 17 -8.4 80 80 WNW 8 13 30.23 1024 10 16.0934 0 0
5:35 am 05:35 Clear 22 -5.5 17 -8.4 80 80 W 7 11 30.24 1024 10 16.0934 0 0
5:55 am 05:55 Clear 22 -5.6 17 -8.2 82 82 W 9 15 30.25 1024 10 16.0934 0 0
6:15 am 06:15 Clear 22 -5.5 18 -8 83 83 W 7 11 30.26 1025 10 16.0934 0 0
6:35 am 06:35 Clear 22 -5.5 18 -8 83 83 WNW 6 9 30.28 1025 10 16.0934 0 0
6:55 am 06:55 Clear 23 -5.1 18 -8 80 80 WNW 5 7 30.28 1025 10 16.0934 0 0
7:15 am 07:15 Clear 21 -6 17 -8.3 84 84 WNW 5 7 30.28 1026 10 16.0934 0 0
7:35 am 07:35 Clear 21 -6.2 17 -8.4 85 85 W 6 9 30.3 1026 10 16.0934 0 0
7:55 am 07:55 Clear 22 -5.6 18 -8 83 83 W 8 13 30.3 1026 10 16.0934 0 0
8:15 am 08:15 Partly Cloudy 22 -5.5 17 -8.1 82 82 WNW 7 11 30.31 1026 10 16.0934 0 0
8:35 am 08:35 Partly Cloudy 22 -5.5 17 -8.3 81 81 WNW 7 11 30.31 1026 10 16.0934 0 0
8:55 am 08:55 Partly Cloudy 23 -5 17 -8.1 79 79 WNW 9 15 30.31 1027 10 16.0934 0 0
9:15 am 09:15 Mostly Cloudy 24 -4.6 18 -7.8 79 79 NW 8 13 30.32 1027 10 16.0934 0 0
9:35 am 09:35 Mostly Cloudy 24 -4.7 18 -7.6 80 80 NW 8 13 30.33 1027 10 16.0934 0 0
9:55 am 09:55 Partly Cloudy 26 -3.4 20 -6.8 78 78 NW 6 9 30.32 1027 10 16.0934 0 0
10:15 am 10:15 Mostly Cloudy 28 -2.1 21 -6.1 74 74 NW 7 11 30.32 1027 10 16.0934 0 0
10:35 am 10:35 Partly Cloudy 31 -0.8 22 -5.7 70 70 WNW 7 11 30.3 1026 10 16.0934 0 0
10:55 am 10:55 Sunny 32 0 23 -5.2 68 68 NW 7 11 30.31 1026 10 16.0934 0 0
11:15 am 11:15 Sunny 32 0 22 -5.5 67 67 WNW 8 13 30.32 1027 10 16.0934 0 0
11:35 am 11:35 Sunny 33 0.6 22 -5.4 65 65 WNW 5 7 30.31 1026 10 16.0934 0 0
11:55 am 11:55 Partly Cloudy 33 0.7 23 -5.2 65 65 WNW 6 9 30.32 1027 10 16.0934 0 0
12:15 pm 12:15 Mostly Cloudy 34 0.9 22 -5.6 62 62 WNW 5 7 30.33 1027 10 16.0934 0 0
12:35 pm 12:35 Cloudy 34 1.3 23 -5.2 62 62 Calm 30.31 1027 10 16.0934 0 0
12:55 pm 12:55 Cloudy 35 1.4 23 -5.1 62 62 Calm 30.32 1027 10 16.0934 0 0
1:15 pm 13:15 Cloudy 35 1.6 23 -5 62 62 Calm 30.32 1027 10 16.0934 0 0
1:35 pm 13:35 Cloudy 35 1.7 24 -4.7 63 63 Calm 30.32 1027 10 16.0934 0 0
1:55 pm 13:55 Cloudy 36 2.1 24 -4.3 63 63 Calm 30.32 1027 10 16.0934 0 0
2:15 pm 14:15 Cloudy 37 2.5 24 -4.5 60 60 Calm 30.3 1026 10 16.0934 0 0
2:35 pm 14:35 Cloudy 37 2.5 24 -4.3 61 61 ESE 3 6 30.29 1026 10 16.0934 0 0
2:55 pm 14:55 Cloudy 37 2.5 25 -3.9 63 63 Calm 30.29 1026 10 16.0934 0 0
3:15 pm 15:15 Cloudy 37 2.6 26 -3.4 65 65 E 3 6 30.28 1025 10 16.0934 0 0
3:35 pm 15:35 Cloudy 37 2.6 25 -3.9 63 63 ESE 5 7 30.28 1025 10 16.0934 0 0
3:55 pm 15:55 Cloudy 37 2.5 27 -3 67 67 ESE 7 11 30.28 1025 10 16.0934 0 0
4:15 pm 16:15 Cloudy 37 2.7 24 -4.3 60 60 ESE 8 13 30.28 1025 10 16.0934 0 0
4:35 pm 16:35 Mostly Cloudy 37 2.9 25 -4.1 60 60 ESE 8 13 30.28 1025 10 16.0934 0 0
4:55 pm 16:55 Sunny 36 2.3 26 -3.4 66 66 ESE 9 15 30.27 1025 10 16.0934 0 0
5:15 pm 17:15 Sunny 36 2.2 26 -3.3 67 67 E 9 15 30.27 1025 10 16.0934 0 0
5:35 pm 17:35 Sunny 35 1.8 26 -3.2 70 70 ESE 9 15 30.28 1025 10 16.0934 0 0
5:55 pm 17:55 Sunny 35 1.8 27 -2.7 72 72 E 8 13 30.27 1025 10 16.0934 0 0
6:15 pm 18:15 Sunny 35 1.5 28 -2.5 75 75 E 9 15 30.27 1025 10 16.0934 0 0
6:35 pm 18:35 Sunny 35 1.5 27 -2.7 74 74 E 9 15 30.27 1025 10 16.0934 0 0
6:55 pm 18:55 Sunny 33 0.6 27 -2.8 78 78 E 7 11 30.28 1025 10 16.0934 0 0
7:15 pm 19:15 Sunny 34 0.9 28 -2.5 78 78 E 8 13 30.28 1025 10 16.0934 0 0
7:35 pm 19:35 Sunny 32 0.2 27 -2.6 82 82 E 10 17 30.28 1026 10 16.0934 0 0
7:55 pm 19:55 Clear 31 -0.5 27 -2.6 86 86 E 9 15 30.3 1026 10 16.0934 0 0
8:15 pm 20:15 Clear 30 -1.1 27 -2.7 89 89 ESE 7 11 30.32 1027 10 16.0934 0 0
8:35 pm 20:35 Clear 28 -2 26 -3.4 90 90 ESE 7 11 30.32 1027 10 16.0934 0 0
8:55 pm 20:55 Clear 28 -2.2 26 -3.3 92 92 ESE 6 9 30.34 1027 10 16.0934 0 0
9:15 pm 21:15 Clear 28 -2 26 -3.3 91 91 SE 8 13 30.33 1027 10 16.0934 0 0
9:35 pm 21:35 Clear 28 -2.3 26 -3.6 91 91 SE 7 11 30.35 1028 10 16.0934 0 0
9:55 pm 21:55 Clear 28 -2.5 25 -3.8 91 91 SE 9 15 30.35 1028 10 16.0934 0 0
10:15 pm 22:15 Clear 28 -2 26 -3.5 90 90 SE 7 11 30.36 1028 10 16.0934 0 0
10:35 pm 22:35 Clear 28 -2 25 -3.7 88 88 SE 8 13 30.36 1028 10 16.0934 0 0
10:55 pm 22:55 Clear 27 -2.7 25 -4.1 90 90 SE 8 13 30.37 1029 10 16.0934 0 0
11:15 pm 23:15 Clear 26 -3.3 24 -4.3 93 93 SE 8 13 30.38 1029 10 16.0934 0 0
11:35 pm 23:35 Clear 26 -3.5 24 -4.5 93 93 SE 6 9 30.38 1029 10 16.0934 0 0
11:55 pm 23:55 Clear 24 -4.2 23 -5 94 94 SE 6 9 30.39 1029 10 16.0934 0 0

Powered by AerisWeather